Weather History for Glasgow, MT

Change the Weather History Date:

Wednesday, January 23, 2013

  Actual Average Record
Temperature  
Mean Temperature 7 °F 14 °F  
Max Temperature 11 °F 24 °F 61 °F (1944)
Min Temperature 3 °F 5 °F -44 °F (1897)
Degree Days  
Heating Degree Days 58 51  
Month to date heating degree days 1131 1188  
Since 1 July heating degree days 4661 4690  
Cooling Degree Days 0 0  
Month to date cooling degree days 0 0  
Year to date cooling degree days 0 0  
Moisture  
Dew Point 1 °F    
Average Humidity 78    
Maximum Humidity 83    
Minimum Humidity 73    
Precipitation  
Precipitation 0.00 in 0.01 in 0.50 in (1918)
Month to date precipitation 0.46 0.30  
Year to date precipitation 0.46 0.30  
Snow  
Snow 0.00 in 0.20 in 6.60 in (2010)
Month to date snowfall 10.8 6.4  
Since 1 July snowfall 33.4 21.0  
Snow Depth 2.00 in    
Sea Level Pressure  
Sea Level Pressure 30.38 in    
Wind  
Wind Speed 14 mph (East)    
Max Wind Speed 29 mph    
Max Gust Speed 33 mph    
Visibility 10 miles    
Events      
T = Trace of Precipitation, MM = Missing Value Source: NWS Daily Summary

Daily Weather History Graph

Daily Weather History Graph

Search for Another Location

Airport:

Trip Planner

Search our weather history database for the weather conditions in past years. The results will help you decide how hot, cold, wet, or windy it might be!

Date:

Astronomy

Jan. 23, 2013 Rise Set
Actual Time 7:45 AM MST 4:52 PM MST
Civil Twilight 7:10 AM MST 5:26 PM MST
Nautical Twilight 6:32 AM MST 6:04 PM MST
Astronomical Twilight 5:55 AM MST 6:41 PM MST
Moon 2:01 PM MST (1/23) 5:02 AM MST (1/23)
Length of Visible Light 10h 16m
Length of Day
9h 07m
Waxing Gibbous, 89% of the Moon is Illuminated
Jan 23
Waxing Gibbous
Jan 26
Full
Feb 3
Last Quarter
Feb 10
New
Feb 17
First Quarter

Hourly Weather History & Observations

Time (MST) Temp. Windchill Dew Point Humidity Pressure Visibility Wind Dir Wind Speed Gust Speed Precip Events Conditions
12:53 AM 10.0 °F -0.9 °F 3.9 °F 76% 30.34 in 10.0 mi North 6.9 mph - N/A   Clear
1:53 AM 10.9 °F 1.4 °F 5.0 °F 77% 30.35 in 10.0 mi North 5.8 mph - N/A   Partly Cloudy
2:53 AM 10.0 °F 1.8 °F 3.9 °F 76% 30.39 in 10.0 mi North 4.6 mph - N/A   Clear
3:53 AM 9.0 °F -0.9 °F 3.0 °F 77% 30.40 in 10.0 mi NNE 5.8 mph - N/A   Mostly Cloudy
4:53 AM 7.0 °F -4.5 °F 1.0 °F 77% 30.41 in 10.0 mi ENE 6.9 mph - N/A   Clear
5:53 AM 3.0 °F -10.5 °F -2.0 °F 80% 30.43 in 10.0 mi ENE 8.1 mph - N/A   Clear
6:53 AM 5.0 °F -2.1 °F -0.0 °F 80% 30.47 in 10.0 mi East 3.5 mph - N/A   Mostly Cloudy
7:53 AM 5.0 °F -6.9 °F -0.0 °F 80% 30.47 in 10.0 mi East 6.9 mph - N/A   Clear
8:53 AM 6.1 °F -7.8 °F -0.0 °F 76% 30.48 in 10.0 mi East 9.2 mph - N/A   Clear
9:53 AM 7.0 °F -9.1 °F -0.0 °F 73% 30.50 in 10.0 mi ESE 12.7 mph - N/A   Clear
10:53 AM 8.1 °F -8.4 °F 1.0 °F 73% 30.50 in 10.0 mi East 13.8 mph - N/A   Clear
11:53 AM 8.1 °F -8.4 °F 1.0 °F 73% 30.50 in 10.0 mi SE 13.8 mph - N/A   Mostly Cloudy
12:53 PM 8.1 °F -9.0 °F 1.9 °F 76% 30.46 in 10.0 mi ESE 15.0 mph - N/A   Scattered Clouds
1:53 PM 9.0 °F -7.9 °F 1.9 °F 73% 30.45 in 10.0 mi East 15.0 mph - N/A   Clear
2:53 PM 8.1 °F -9.0 °F 1.0 °F 73% 30.44 in 10.0 mi ESE 15.0 mph - N/A   Clear
3:53 PM 7.0 °F -12.1 °F -0.0 °F 73% 30.42 in 10.0 mi ESE 18.4 mph - N/A   Clear
4:53 PM 6.1 °F -14.3 °F -0.9 °F 73% 30.38 in 10.0 mi ESE 20.7 mph - N/A   Clear
5:53 PM 6.1 °F -14.3 °F -0.9 °F 73% 30.38 in 10.0 mi East 20.7 mph - N/A   Clear
6:53 PM 5.0 °F -16.2 °F -0.9 °F 76% 30.35 in 10.0 mi ESE 21.9 mph 27.6 mph N/A   Clear
7:53 PM 3.9 °F -17.1 °F -2.0 °F 76% 30.31 in 10.0 mi East 20.7 mph - N/A   Clear
8:53 PM 5.0 °F -16.2 °F -0.9 °F 76% 30.26 in 10.0 mi ESE 21.9 mph 29.9 mph N/A   Clear
9:53 PM 5.0 °F -16.7 °F -0.0 °F 80% 30.24 in 10.0 mi ESE 23.0 mph - N/A   Clear
10:53 PM 7.0 °F -14.0 °F 1.0 °F 77% 30.19 in 10.0 mi ESE 23.0 mph 29.9 mph N/A   Clear
11:53 PM 7.0 °F -14.5 °F 1.9 °F 80% 30.14 in 10.0 mi East 24.2 mph 28.8 mph N/A   Clear